Regional Weather Roundup
Issued by NWS

Home | Current Version | Previous Version | Text Only | Print | Product List | Glossary Off
Versions: 1 2 3 4 5 6 7 8 9 10 11 12 13 14 15 16 17 18 19 20 21 22 23 24 25 26 27 28 29 30 31 32 33 34 35 36 37 38 39 40 41 42 43 44 45 46 47 48 49 50

000
ASUS45 KABQ 091610
RWRNM
NEW MEXICO REGIONAL WEATHER ROUNDUP
NATIONAL WEATHER SERVICE ALBUQUERQUE NM
900 AM MST FRI DEC 09 2016

NOTE: "FAIR" MEANS FEW OR NO CLOUDS BELOW 12,000 FEET AGL WITH NO
       SIGNIFICANT WEATHER OR OBSTRUCTIONS TO VISION.

      THIS PRODUCT IS RELEASED AS TWO VERSIONS.  ONE VERSION NEAR
      THE TOP OF THE HOUR CONTAINING PRELIMINARY DATA FROM ALBUQUERQUE
      AND OTHER STATIONS.  A FINAL VERSION WITH ADDITIONAL DATA IS
      ISSUED ABOUT 10 MINUTES AFTER THE HOUR.

NMZ501-503-504-510>518-091700-
NORTHWEST PLATEAU/NORTHCENTRAL MOUNTAINS

CITY           SKY/WX    TMP DP  RH WIND       PRES   REMARKS
FARMINGTON     FAIR      30  20  66 E7        30.34R WCI  23
LOS ALAMOS     FAIR      26  17  71 CALM      30.35R
SANTA FE       FAIR      31  22  69 N9        30.35R WCI  23
TAOS           FAIR      23  12  63 S6        30.34S WCI  16
ANGEL FIRE     FAIR      32  18  56 CALM      30.29S

$$
NMZ402-403-502-505>509-091700-
WESTCENTRAL MOUNTAINS/SOUTHWEST MOUNTAINS

CITY           SKY/WX    TMP DP  RH WIND       PRES   REMARKS
GALLUP         FAIR      30  22  72 E3        30.36R
GRANTS         FAIR      26  19  74 NW7       30.39R WCI  18
SILVER CITY    FAIR      34  30  83 CALM      30.38R

$$
NMZ407-409-411-412-091700-
SOUTHERN DESERTS

CITY           SKY/WX    TMP DP  RH WIND       PRES   REMARKS
DEMING         FAIR      31  27  85 E7        30.42R WCI  24
LAS CRUCES     FAIR      32  27  81 E6        30.44R WCI  27
HOLLOMAN AFB   CLOUDY    29  24  84 NW3       30.50R
T OR C         FAIR      33  26  75 CALM      30.40R

$$
NMZ519>523-091700-
CENTRAL VALLEYS/CENTRAL HIGHLANDS

CITY           SKY/WX    TMP DP  RH WIND       PRES   REMARKS
ALBUQUERQUE    FAIR      28  20  71 CALM      30.40R
DOUBLE EAGLE   MOSUNNY   28  25  86 S9        30.38R WCI  20
MORIARTY ARPT  FAIR      26  21  81 CALM      30.35S
CLINES CORNERS FAIR      27  23  85 W7        30.32R WCI  19
BELEN          FAIR      30  25  79 S8        30.41R WCI  23
SOCORRO        FAIR      29  25  85 S7        30.42R WCI  21

$$
NMZ524>526-539-540-091700-
SOUTHCENTRAL MOUNTAINS

CITY           SKY/WX    TMP DP  RH WIND       PRES   REMARKS
RUIDOSO        MIX PCPN  32  28  86 N5        30.35R WCI  27

$$
NMZ527>531-091700-
NORTHEAST HIGHLANDS/NORTHEAST PLAINS

CITY           SKY/WX    TMP DP  RH WIND       PRES   REMARKS
LAS VEGAS      FAIR      33  28  81 S15       30.20S WCI  23
RATON          FAIR      24  15  68 NE8       30.19S WCI  15
CLAYTON        FAIR      31  22  69 SW17      30.15S WCI  19

$$
NMZ532>537-091700-
EASTCENTRAL PLAINS

CITY           SKY/WX    TMP DP  RH WIND       PRES   REMARKS
TUCUMCARI      FAIR      33  25  72 SW16      30.26F WCI  23
CANNON AFB     CLOUDY    26  26 100 SW18      30.33F WCI  12
CLOVIS AIRPORT CLOUDY    27  21  80 SW18      30.33F WCI  13

$$
NMZ028-029-538-091700-
SOUTHEAST PLAINS

CITY           SKY/WX    TMP DP  RH WIND       PRES   REMARKS
ROSWELL        CLOUDY    28  26  92 S6        30.41R WCI  22
ARTESIA        CLOUDY    28  28 100 SE8       30.43S FOG     WCI  20
CARLSBAD       NOT AVBL


$$




USA.gov is the U.S. government's official web portal to all federal, state and local government web resources and services.